Tracking 31011 objects as of 11-Jul-2025
HD Live streaming from Space Station
objects crossing your sky now

CZ-6A DEB

Track CZ-6A DEB now!
10-day predictions


NORAD ID: 56673
Int'l Code: 2022-151AGZ
Perigee: 761.1 km
Apogee: 808.3 km
Inclination: 98.8 °
Period: 100.4 minutes
Semi major axis: 7155 km
RCS: Unknown
Launch date: November 11, 2022
Source: People's Republic of China (PRC)
Launch site: Taiyaun Space Center, China (TSC)

Note: This is SATELLITE DEBRIS
Your satellite tracking list
Your tracking list is empty




NASA's NSSDC Master Catalog

Two Line Element Set (TLE):
1 56673U 22151AGZ 25191.59156080  .00002476  00000-0  89309-3 0  9991
2 56673  98.7660 216.7275 0032916 235.5812 124.2259 14.34250162 46892
Source of the keplerian elements: AFSPC